This is the latest recevied weather packets stored in our database for station/object N4NVD-13. If no packets are shown the sender has not sent any weather packets the latest 1 day(s).
| Time | Temp. | Humidity | Pressure | Rain* | Wind** | Luminosity | Snow |
|---|---|---|---|---|---|---|---|
| 1778049202 | 23.89° C | 98% | 1007.6 hPa | 0 mm | 2.68 m/s, 148° | 0 W/m² | - |
| 1778048901 | 23.89° C | 98% | 1007.7 hPa | 0 mm | 1.34 m/s, 138° | 0 W/m² | - |
| 1778048598 | 23.89° C | 98% | 1007.7 hPa | 0 mm | 0.89 m/s, 194° | 0 W/m² | - |
| 1778048294 | 23.89° C | 98% | 1007.9 hPa | 0 mm | 0.89 m/s, 113° | 0 W/m² | - |
| 1778047991 | 23.89° C | 98% | 1007.8 hPa | 0 mm | 1.34 m/s, 229° | 0 W/m² | - |
| 1778047689 | 23.89° C | 98% | 1007.8 hPa | 0 mm | 1.34 m/s, 220° | 0 W/m² | - |
| 1778047387 | 23.89° C | 98% | 1007.9 hPa | 0 mm | 0 m/s | 0 W/m² | - |
| 1778047083 | 23.89° C | 98% | 1007.8 hPa | 0 mm | 0.89 m/s, 210° | 0 W/m² | - |
| 1778046780 | 23.89° C | 98% | 1008 hPa | 0 mm | 0 m/s | 0 W/m² | - |
| 1778046477 | 23.89° C | 98% | 1008.1 hPa | 0 mm | 2.24 m/s, 153° | 0 W/m² | - |
| 1778046174 | 23.89° C | 98% | 1008.3 hPa | 0 mm | 0 m/s | 0 W/m² | - |
| 1778045870 | 23.89° C | 98% | 1007.9 hPa | 0 mm | 0 m/s | 0 W/m² | - |
| 1778045569 | 23.89° C | 97% | 1007.9 hPa | 0 mm | 0.45 m/s, 194° | 0 W/m² | - |
| 1778045266 | 23.89° C | 97% | 1007.8 hPa | 0 mm | 0.89 m/s, 204° | 0 W/m² | - |
| 1778044965 | 23.89° C | 97% | 1007.7 hPa | 0 mm | 1.34 m/s, 122° | 0 W/m² | - |
| 1778044662 | 23.89° C | 97% | 1007.8 hPa | 0 mm | 1.34 m/s, 213° | 0 W/m² | - |
| 1778044358 | 23.89° C | 97% | 1007.8 hPa | 0 mm | 1.34 m/s, 144° | 0 W/m² | - |
| 1778044056 | 23.89° C | 97% | 1007.8 hPa | 0 mm | 0.45 m/s, 157° | 0 W/m² | - |
| 1778043753 | 23.89° C | 97% | 1007.7 hPa | 0 mm | 1.34 m/s, 160° | 0 W/m² | - |
| 1778043450 | 23.89° C | 97% | 1007.9 hPa | 0 mm | 0 m/s | 0 W/m² | - |
| 1778043146 | 23.89° C | 97% | 1007.5 hPa | 0 mm | 2.68 m/s, 157° | 0 W/m² | - |
| 1778042844 | 23.89° C | 96% | 1007.6 hPa | 0 mm | 2.68 m/s, 133° | 0 W/m² | - |
| 1778042541 | 23.89° C | 96% | 1007.9 hPa | 0 mm | 2.24 m/s, 147° | 0 W/m² | - |
| 1778042239 | 24.44° C | 96% | 1007.8 hPa | 0 mm | 0.89 m/s, 213° | 0 W/m² | - |
| 1778041936 | 24.44° C | 96% | 1007.8 hPa | 0 mm | 1.34 m/s, 237° | 0 W/m² | - |
* Rain latest hour (hover to see other rain measurements)
** Current wind speed in m/s (hover to see current wind gust speed)